W5NEM Weather Reports


time (UTC)temp
C
wind
direction
speed
KPH
gust
KPH
rain 1hr
cm
rain 24hr
cm
rain mn
cm
humidity
%
barometer
mb
20260906162004 36 1 3.2 8.0 0.00 0.00 0.00 52 1012.3
20260906161004 36 303 3.2 9.7 0.00 0.00 0.00 53 1012.4
20260906160004 36 79 1.6 3.2 0.00 0.00 0.00 52 1012.4
20260906155004 36 295 4.8 12.9 0.00 0.00 0.00 52 1012.4
20260906154004 35 56 3.2 9.7 0.00 0.00 0.00 54 1012.3
20260906153005 33 1 3.2 11.3 0.00 0.00 0.00 59 1012.2
20260906152006 33 48 3.2 9.7 0.00 0.00 0.00 59 1012.4
20260906151005 33 356 3.2 11.3 0.00 0.00 0.00 59 1012.4
20260906150005 33 288 3.2 9.7 0.00 0.00 0.00 58 1012.3
20260906144005 32 259 1.6 4.8 0.00 0.00 0.00 62 1012.4
20260906143005 32 256 3.2 4.8 0.00 0.00 0.00 64 1012.4
20260906141005 31 42 1.6 3.2 0.00 0.00 0.00 66 1012.4
20260906140005 30 315 1.6 8.0 0.00 0.00 0.00 68 1012.3
20260906135005 29 45 3.2 8.0 0.00 0.00 0.00 74 1012.4
20260906134005 27 224 0.0 3.2 0.00 0.00 0.00 81 1012.7
20260906133006 26 202 0.0 1.6 0.00 0.00 0.00 84 1012.8
20260906132005 25 227 0.0 4.8 0.00 0.00 0.00 87 1012.9
20260906131005 25 106 1.6 4.8 0.00 0.00 0.00 89 1012.9
20260906130005 24 154 3.2 9.7 0.00 0.00 0.00 92 1012.9
20260906125005 24 180 3.2 11.3 0.00 0.00 0.00 94 1013.1
20260906124007 24 174 0.0 0.0 0.00 0.00 0.00 94 1013.1
20260906123005 24 174 0.0 0.0 0.00 0.00 0.00 95 1013.1
20260906122005 23 174 0.0 0.0 0.00 0.00 0.00 97 1013.2
20260906121005 23 174 0.0 0.0 0.00 0.00 0.00 96 1013.0
20260906120005 23 174 0.0 0.0 0.00 0.00 0.00 97 1012.9
20260906114005 23 182 3.2 3.2 0.00 0.00 0.00 97 1012.9
20260906113005 23 155 1.6 4.8 0.00 0.00 0.00 97 1012.7
20260906112005 23 219 0.0 0.0 0.00 0.00 0.00 97 1012.4
20260906110005 23 219 0.0 0.0 0.00 0.00 0.00 97 1012.2
20260906105005 23 219 0.0 3.2 0.00 0.00 0.00 97 1012.0
20260906104005 23 203 1.6 3.2 0.00 0.00 0.00 97 1012.0
20260906103005 23 265 0.0 3.2 0.00 0.00 0.00 97 1011.9
20260906102006 23 305 1.6 4.8 0.00 0.00 0.00 97 1011.8
20260906101005 23 305 3.2 8.0 0.00 0.00 0.00 97 1011.7
20260906100005 23 276 1.6 9.7 0.00 0.00 0.00 98 1011.6
20260906094004 23 16 0.0 0.0 0.00 0.00 0.00 96 1011.5
20260906093005 24 16 0.0 0.0 0.00 0.00 0.00 96 1011.4
20260906092005 25 16 0.0 0.0 0.00 0.00 0.00 94 1011.1
20260906091005 24 16 0.0 0.0 0.00 0.00 0.00 94 1011.0
20260906090005 24 16 0.0 0.0 0.00 0.00 0.00 95 1011.0
20260906085005 25 16 0.0 0.0 0.00 0.00 0.00 94 1011.0
20260906084005 25 16 0.0 0.0 0.00 0.00 0.00 94 1011.1
20260906083005 25 16 0.0 0.0 0.00 0.00 0.00 94 1011.1
20260906082005 25 16 0.0 0.0 0.00 0.00 0.00 93 1011.2
20260906080005 25 16 0.0 1.6 0.00 0.00 0.00 90 1011.4
20260906073005 25 292 1.6 8.0 0.00 0.00 0.00 93 1011.6
20260906072005 25 302 3.2 4.8 0.00 0.00 0.00 92 1011.5
20260906064005 26 356 1.6 3.2 0.00 0.00 0.00 89 1011.3
20260906063005 26 27 0.0 0.0 0.00 0.00 0.00 87 1011.3
20260906061005 26 27 0.0 1.6 0.00 0.00 0.00 84 1011.1
20260906055004 26 28 1.6 4.8 0.00 0.00 0.00 84 1011.2
20260906054005 26 24 1.6 3.2 0.00 0.00 0.00 83 1011.2
20260906053005 26 20 0.0 3.2 0.00 0.00 0.00 84 1011.4
20260906052005 26 25 1.6 4.8 0.00 0.00 0.00 83 1011.4
20260906051005 26 323 1.6 4.8 0.00 0.00 0.00 83 1011.5
20260906050004 27 310 3.2 3.2 0.00 0.00 0.00 82 1011.5
20260906045004 27 272 0.0 4.8 0.00 0.00 0.00 82 1011.5
20260906044005 27 284 0.0 0.0 0.00 0.00 0.00 81 1011.5
20260906042005 27 284 0.0 3.2 0.00 0.00 0.00 79 1011.5
20260906041005 28 321 1.6 3.2 0.00 0.00 0.00 76 1011.4
20260906040005 28 3 1.6 4.8 0.00 0.00 0.00 76 1011.3
20260906035005 28 18 3.2 3.2 0.00 0.00 0.00 77 1011.4
20260906034009 28 329 1.6 3.2 0.00 0.00 0.00 77 1011.5
20260906033004 28 291 1.6 4.8 0.00 0.00 0.00 77 1011.5
20260906031004 28 291 1.6 4.8 0.00 0.00 0.00 76 1011.4
20260906025005 28 334 1.6 8.0 0.00 0.00 0.00 75 1011.2
20260906024004 28 342 1.6 4.8 0.00 0.00 0.00 75 1011.0
20260906023005 28 311 3.2 8.0 0.00 0.00 0.00 75 1010.9
20260906022005 28 314 4.8 14.5 0.00 0.00 0.00 75 1010.8
20260906021005 30 260 1.6 9.7 0.00 0.00 0.00 72 1010.5
20260906020005 30 120 0.0 0.0 0.00 0.00 0.00 70 1010.4
20260906015007 30 120 0.0 0.0 0.00 0.00 0.00 68 1010.3
20260906014005 31 120 0.0 0.0 0.00 0.00 0.00 67 1010.1
20260906013004 31 120 0.0 0.0 0.00 0.00 0.00 67 1010.0
20260906012004 31 120 0.0 0.0 0.00 0.00 0.00 66 1009.9
20260906011004 31 120 0.0 0.0 0.00 0.00 0.00 64 1009.8
20260906010004 32 120 0.0 0.0 0.00 0.00 0.00 63 1009.8
20260906005005 32 120 0.0 0.0 0.00 0.00 0.00 62 1009.8
20260906003005 33 120 0.0 0.0 0.00 0.00 0.00 59 1009.4
20260906002004 33 120 0.0 0.0 0.00 0.00 0.00 57 1009.6
20260906001005 34 120 0.0 0.0 0.00 0.00 0.00 56 1009.7
20260906000005 35 120 0.0 0.0 0.00 0.00 0.00 53 1009.7
20260905235005 35 120 1.6 3.2 0.00 0.00 0.00 50 1009.7
20260905234004 36 125 0.0 1.6 0.00 0.00 0.00 49 1009.7
20260905231004 36 96 0.0 8.0 0.00 0.00 0.00 46 1009.4
20260905230005 36 87 1.6 4.8 0.00 0.00 0.00 45 1009.4
20260905224005 37 131 3.2 9.7 0.00 0.00 0.00 43 1009.3
20260905222004 38 54 3.2 11.3 0.00 0.00 0.00 42 1009.4
20260905220005 38 94 3.2 4.8 0.00 0.00 0.00 42 1009.6
20260905215004 38 321 1.6 8.0 0.00 0.00 0.00 41 1009.7
20260905214004 38 139 3.2 9.7 0.00 0.00 0.00 41 1009.7
20260905213005 38 158 4.8 11.3 0.00 0.00 0.00 40 1009.8
20260905212005 39 140 3.2 9.7 0.00 0.00 0.00 40 1009.9
20260905211004 38 85 1.6 8.0 0.00 0.00 0.00 40 1010.0
20260905210004 38 238 4.8 11.3 0.00 0.00 0.00 38 1010.1
20260905204004 39 175 4.8 12.9 0.00 0.00 0.00 39 1010.4
20260905203005 39 59 4.8 14.5 0.00 0.00 0.00 40 1010.4
20260905202004 38 4 1.6 9.7 0.00 0.00 0.00 41 1010.6
20260905201004 39 74 4.8 11.3 0.00 0.00 0.00 40 1010.8
20260905200004 39 43 6.4 12.9 0.00 0.00 0.00 40 1010.8
20260905195005 39 135 3.2 12.9 0.00 0.00 0.00 40 1011.0
20260905194005 39 177 3.2 11.3 0.00 0.00 0.00 41 1011.2
20260905193005 38 95 4.8 12.9 0.00 0.00 0.00 41 1011.4
20260905192005 39 61 4.8 12.9 0.00 0.00 0.00 40 1011.4
20260905191004 40 141 3.2 12.9 0.00 0.00 0.00 39 1011.6
20260905190007 40 5 3.2 9.7 0.00 0.00 0.00 40 1011.8
20260905185004 39 278 4.8 11.3 0.00 0.00 0.00 40 1011.9
20260905184004 39 137 4.8 11.3 0.00 0.00 0.00 41 1012.0
20260905183004 39 48 3.2 12.9 0.00 0.00 0.00 41 1012.1
20260905182004 39 95 3.2 14.5 0.00 0.00 0.00 41 1012.3
20260905181004 38 147 8.0 14.5 0.00 0.00 0.00 42 1012.4
20260905180004 37 322 3.2 14.5 0.00 0.00 0.00 42 1012.6
20260905175005 38 283 6.4 12.9 0.00 0.00 0.00 41 1012.7
20260905173004 38 220 4.8 12.9 0.00 0.00 0.00 42 1012.9
20260905172004 38 125 3.2 11.3 0.00 0.00 0.00 43 1012.9
20260905170004 39 118 4.8 12.9 0.00 0.00 0.00 42 1013.1
20260905165004 38 94 8.0 12.9 0.00 0.00 0.00 45 1013.3
20260905164004 38 113 3.2 9.7 0.00 0.00 0.00 45 1013.4
20260905163005 38 108 3.2 11.3 0.00 0.00 0.00 47 1013.6